Weather History for KCWI - August, 2012

Change the Weather History Date:

Friday, August 24, 2012

  Actual Average Record
Temperature  
Mean Temperature 78 °F -  
Max Temperature 91 °F 82 °F 97 °F (1948)
Min Temperature 66 °F 59 °F 43 °F (1984)
Cooling Degree Days 14    
Growing Degree Days 28 (Base 50)    
Moisture  
Dew Point 57 °F    
Average Humidity 49    
Maximum Humidity 73    
Minimum Humidity 28    
Precipitation  
Precipitation 0.00 in - - ()
Sea Level Pressure  
Sea Level Pressure 30.00 in    
Wind  
Wind Speed 8 mph (SSW)    
Max Wind Speed 17 mph    
Max Gust Speed 22 mph    
Visibility 10 miles    
Events      
Averages and records for this station are not official NWS values.
T = Trace of Precipitation, MM = Missing Value Source: NWS Daily Summary

Daily Weather History Graph

Daily Weather History Graph

Search for Another Location

Airport or City:

Trip Planner

Search our weather history database for the weather conditions in past years. The results will help you decide how hot, cold, wet, or windy it might be!

Date:

Astronomy

Aug. 24, 2012 Rise Set
Actual Time 6:19 AM CDT 7:46 PM CDT
Civil Twilight 5:50 AM CDT 8:15 PM CDT
Nautical Twilight 5:14 AM CDT 8:51 PM CDT
Astronomical Twilight 4:37 AM CDT 9:28 PM CDT
Moon 2:20 PM CDT (8/24) No Moon Set
Length of Visible Light 14h 25m
Length of Day
13h 27m
First Quarter, 52% of the Moon is Illuminated
Aug 24
First Quarter
Aug 31
Full
Sep 8
Last Quarter
Sep 15
New
Sep 22
First Quarter

Hourly Weather History & Observations

Time (CDT) Temp. Heat Index Dew Point Humidity Pressure Visibility Wind Dir Wind Speed Gust Speed Precip Events Conditions
12:15 AM 71.6 °F - 57.2 °F 60% 30.01 in 10.0 mi SSE 9.2 mph - N/A   Clear
12:35 AM 71.6 °F - 57.2 °F 60% 30.00 in 10.0 mi SSE 9.2 mph - N/A   Clear
12:55 AM 71.6 °F - 57.2 °F 60% 30.00 in 10.0 mi South 9.2 mph - N/A   Partly Cloudy
1:15 AM 71.6 °F - 57.2 °F 60% 30.00 in 10.0 mi South 8.1 mph - N/A   Clear
1:35 AM 71.6 °F - 57.2 °F 60% 30.00 in 10.0 mi South 6.9 mph - N/A   Clear
1:55 AM 73.4 °F - 55.4 °F 53% 30.01 in 10.0 mi South 11.5 mph - N/A   Clear
2:15 AM 73.4 °F - 55.4 °F 53% 30.00 in 10.0 mi South 10.4 mph - N/A   Clear
2:35 AM 73.4 °F - 55.4 °F 53% 30.00 in 10.0 mi South 10.4 mph - N/A   Clear
2:55 AM 71.6 °F - 55.4 °F 57% 30.00 in 10.0 mi South 9.2 mph - N/A   Clear
3:15 AM 71.6 °F - 55.4 °F 57% 30.00 in 10.0 mi South 9.2 mph - N/A   Clear
3:35 AM 73.4 °F - 55.4 °F 53% 29.99 in 10.0 mi South 10.4 mph - N/A   Partly Cloudy
3:55 AM 73.4 °F - 55.4 °F 53% 30.00 in 10.0 mi South 8.1 mph - N/A   Mostly Cloudy
4:15 AM 73.4 °F - 55.4 °F 53% 30.00 in 10.0 mi South 6.9 mph - N/A   Overcast
4:35 AM 71.6 °F - 55.4 °F 57% 30.01 in 10.0 mi South 6.9 mph - N/A   Overcast
4:55 AM 71.6 °F - 55.4 °F 57% 30.01 in 10.0 mi South 6.9 mph - N/A   Overcast
5:15 AM 71.6 °F - 55.4 °F 57% 30.02 in 10.0 mi SSW 8.1 mph - N/A   Overcast
5:35 AM 68.0 °F - 55.4 °F 64% 30.02 in 10.0 mi South 9.2 mph - N/A   Mostly Cloudy
5:55 AM 68.0 °F - 55.4 °F 64% 30.02 in 10.0 mi South 8.1 mph - N/A   Scattered Clouds
6:15 AM 66.2 °F - 55.4 °F 68% 30.02 in 10.0 mi South 6.9 mph - N/A   Partly Cloudy
6:35 AM 66.2 °F - 55.4 °F 68% 30.02 in 10.0 mi South 6.9 mph - N/A   Clear
6:55 AM 66.2 °F - 55.4 °F 68% 30.03 in 10.0 mi South 5.8 mph - N/A   Clear
7:15 AM 66.2 °F - 55.4 °F 68% 30.03 in 10.0 mi South 4.6 mph - N/A   Clear
7:35 AM 66.2 °F - 57.2 °F 73% 30.04 in 10.0 mi South 4.6 mph - N/A   Clear
7:55 AM 69.8 °F - 57.2 °F 64% 30.04 in 10.0 mi South 4.6 mph - N/A   Clear
8:15 AM 71.6 °F - 57.2 °F 60% 30.04 in 10.0 mi South 5.8 mph - N/A   Clear
8:35 AM 71.6 °F - 57.2 °F 60% 30.04 in 10.0 mi SSW 5.8 mph - N/A   Clear
8:55 AM 73.4 °F - 60.8 °F 65% 30.04 in 10.0 mi SSW 8.1 mph - N/A   Clear
9:15 AM 77.0 °F - 60.8 °F 57% 30.03 in 10.0 mi SW 8.1 mph - N/A   Clear
9:35 AM 78.8 °F - 59.0 °F 51% 30.04 in 10.0 mi SW 6.9 mph - N/A   Clear
9:55 AM 80.6 °F 80.8 °F 57.2 °F 45% 30.05 in 10.0 mi WSW 6.9 mph - N/A   Clear
10:15 AM 82.4 °F 82.0 °F 57.2 °F 42% 30.05 in 10.0 mi WSW 4.6 mph - N/A   Clear
10:35 AM 82.4 °F 82.0 °F 57.2 °F 42% 30.04 in 10.0 mi WSW 5.8 mph - N/A   Clear
10:55 AM 82.4 °F 82.9 °F 60.8 °F 48% 30.04 in 10.0 mi WSW 5.8 mph - N/A   Clear
11:15 AM 84.2 °F 83.0 °F 55.4 °F 37% 30.04 in 10.0 mi WSW 4.6 mph - N/A   Clear
11:35 AM 86.0 °F 84.9 °F 57.2 °F 37% 30.03 in 10.0 mi WNW 4.6 mph - N/A   Clear
11:55 AM 87.8 °F 86.1 °F 55.4 °F 33% 30.02 in 10.0 mi SW 10.4 mph - N/A   Clear
12:15 PM 87.8 °F 86.1 °F 55.4 °F 33% 30.02 in 10.0 mi SW 6.9 mph - N/A   Clear
12:35 PM 87.8 °F 85.7 °F 53.6 °F 31% 30.01 in 10.0 mi WSW 6.9 mph - N/A   Clear
12:55 PM 89.6 °F 87.3 °F 53.6 °F 29% 30.01 in 10.0 mi SSW 11.5 mph - N/A   Clear
1:15 PM 89.6 °F 87.3 °F 53.6 °F 29% 30.00 in 10.0 mi SSW 11.5 mph - N/A   Clear
1:35 PM 89.6 °F 87.7 °F 55.4 °F 31% 30.00 in 10.0 mi SSW 8.1 mph - N/A   Clear
1:55 PM 91.4 °F 89.4 °F 55.4 °F 29% 29.99 in 10.0 mi SSW 8.1 mph 17.3 mph N/A   Clear
2:15 PM 91.4 °F 89.4 °F 55.4 °F 29% 29.99 in 10.0 mi SW 10.4 mph - N/A   Clear
2:35 PM 91.4 °F 89.4 °F 55.4 °F 29% 29.98 in 10.0 mi SW 12.7 mph 18.4 mph N/A   Clear
2:55 PM 91.4 °F 89.1 °F 53.6 °F 28% 29.97 in 10.0 mi SSW 16.1 mph 20.7 mph N/A   Clear
3:15 PM 91.4 °F 89.4 °F 55.4 °F 29% 29.97 in 10.0 mi SW 13.8 mph 20.7 mph N/A   Clear
3:35 PM 91.4 °F 89.4 °F 55.4 °F 29% 29.97 in 10.0 mi SW 16.1 mph 21.9 mph N/A   Clear
3:55 PM 91.4 °F 89.4 °F 55.4 °F 29% 29.97 in 10.0 mi SW 17.3 mph 21.9 mph N/A   Clear
4:15 PM 91.4 °F 89.4 °F 55.4 °F 29% 29.98 in 10.0 mi SSW 11.5 mph 18.4 mph N/A   Clear
4:35 PM 91.4 °F 89.4 °F 55.4 °F 29% 29.97 in 10.0 mi SSW 10.4 mph 17.3 mph N/A   Clear
4:55 PM 91.4 °F 89.4 °F 55.4 °F 29% 29.97 in 10.0 mi SW 8.1 mph - N/A   Clear
5:15 PM 91.4 °F 89.4 °F 55.4 °F 29% 29.97 in 10.0 mi SW 11.5 mph - N/A   Clear
5:35 PM 89.6 °F 87.7 °F 55.4 °F 31% 29.97 in 10.0 mi WSW 10.4 mph - N/A   Clear
5:55 PM 89.6 °F 87.7 °F 55.4 °F 31% 29.97 in 10.0 mi SSW 11.5 mph - N/A   Clear
6:15 PM 87.8 °F 86.5 °F 57.2 °F 35% 29.97 in 10.0 mi SSW 4.6 mph - N/A   Clear
6:35 PM 86.0 °F 86.1 °F 60.8 °F 43% 29.97 in 10.0 mi SSW 5.8 mph - N/A   Clear
6:55 PM 86.0 °F 85.4 °F 59.0 °F 40% 29.97 in 10.0 mi South 4.6 mph - N/A   Clear
7:15 PM 84.2 °F 83.8 °F 59.0 °F 42% 29.97 in 10.0 mi South 3.5 mph - N/A   Clear
7:35 PM 80.6 °F 81.5 °F 60.8 °F 51% 29.97 in 10.0 mi SSE 3.5 mph - N/A   Clear
7:55 PM 78.8 °F - 59.0 °F 51% 29.97 in 10.0 mi SSE 3.5 mph - N/A   Clear
8:15 PM 75.2 °F - 59.0 °F 57% 29.97 in 10.0 mi SE 3.5 mph - N/A   Clear
8:35 PM 75.2 °F - 57.2 °F 53% 29.98 in 10.0 mi SSE 4.6 mph - N/A   Clear
8:55 PM 75.2 °F - 59.0 °F 57% 29.98 in 10.0 mi SSE 5.8 mph - N/A   Clear
9:15 PM 73.4 °F - 59.0 °F 61% 29.98 in 8.0 mi SE 6.9 mph - N/A   Clear
9:35 PM 73.4 °F - 57.2 °F 57% 29.98 in 10.0 mi SE 9.2 mph - N/A   Clear
9:55 PM 73.4 °F - 57.2 °F 57% 29.98 in 10.0 mi SE 9.2 mph - N/A   Clear
10:15 PM 73.4 °F - 59.0 °F 61% 29.98 in 10.0 mi SE 8.1 mph - N/A   Clear
10:35 PM 73.4 °F - 57.2 °F 57% 29.99 in 10.0 mi SSE 8.1 mph - N/A   Clear
10:55 PM 73.4 °F - 57.2 °F 57% 29.99 in 10.0 mi SSE 9.2 mph - N/A   Clear
11:15 PM 73.4 °F - 57.2 °F 57% 29.99 in 10.0 mi SSE 8.1 mph - N/A   Clear
11:35 PM 71.6 °F - 57.2 °F 60% 30.00 in 10.0 mi SSE 6.9 mph - N/A   Clear
11:55 PM 69.8 °F - 57.2 °F 64% 30.00 in 10.0 mi SSE 5.8 mph - N/A   Clear